Regional Weather Roundup
Issued by NWS

Home | Current Version | Previous Version | Graphics & Text | Print | Product List | Glossary On
Versions: 1 2 3 4 5 6 7 8 9 10 11 12 13 14 15 16 17 18 19 20 21 22 23 24 25 26 27 28 29 30 31 32 33 34 35 36 37 38 39 40 41 42 43 44 45 46 47 48 49 50
000
ASUS43 KLOT 221606
RWRIL

ILLINOIS REGIONAL WEATHER ROUNDUP
NATIONAL WEATHER SERVICE CHICAGO/ROMEOVILLE IL
1100 AM CDT TUE JUL 22 2014

NOTE: "FAIR" INDICATES FEW OR NO CLOUDS BELOW 12,000 FEET WITH NO
SIGNIFICANT WEATHER AND/OR OBSTRUCTIONS TO VISIBILITY.

* THESE STATIONS ARE NOT UNDER NWS QUALITY CONTROL. THEY ALSO MAY NOT
  REPORT WEATHER SUCH AS PRECIPITATION OR FOG.

ILZ001-002-007-009-015-016-024-221700-
NORTHWEST ILLINOIS

CITY           SKY/WX    TMP DP  RH WIND       PRES   REMARKS
MOLINE         CLOUDY    83  72  69 W13       29.98R HX  88
STERLING*      PTSUNNY   82  72  69 W5        29.98F HX  87
SAVANNA*       MOSUNNY   85  71  61 SW9       29.97R HX  90
$$

ILZ003-004-008-010-011-017-018-221700-
NORTH CENTRAL ILLINOIS

CITY           SKY/WX    TMP DP  RH WIND       PRES   REMARKS
ROCKFORD       PTSUNNY   83  71  67 SW15      30.00S HX  87
FREEPORT*      MOSUNNY   79  72  79 SW15      30.01R HX  82
ROCHELLE*      MOSUNNY   81  70  68 S13       29.99F HX  85
DE KALB*       PTSUNNY   80  70  73 SW15G21   30.02S HX  82
PERU*          MOSUNNY   80  70  70 SW8       30.02S HX  83
$$

ILZ005-006-012>014-019>023-221700-
NORTHEAST ILLINOIS

CITY           SKY/WX    TMP DP  RH WIND       PRES   REMARKS
CHICAGO-OHARE  MOSUNNY   83  65  54 SW16G25   30.00S HX  85
CHICAGO-MIDWAY MOSUNNY   84  68  58 SW14G23   30.01S HX  87
AURORA         MOSUNNY   83  69  62 SW14G23   30.03R HX  86
LANSING*       SUNNY     81  66  59 SW17      30.04R HX  83
JOLIET*        SUNNY     82  67  59 SW13G21   30.03S HX  84
WAUKEGAN       MOSUNNY   83  67  58 SW17G26   29.98S HX  85
DUPAGE AIRPORT PTSUNNY   83  68  60 SW18      30.02R HX  86
KANKAKEE*      SUNNY     82  71  68 SW12      30.06R HX  86
WHEELING       MOSUNNY   84  67  56 SW10      30.01S HX  86
MORRIS*        SUNNY     83  71  68 SW14      30.03R HX  88
ROMEOVILLE*    SUNNY     82  68  63 SW14      30.03R HX  85
NORTHERLY ISL    N/A     81  64  56 SW7         N/A  HX  82
$$

LMZ740>746-221700-
SOUTHERN LAKE MICHIGAN

STATION/POSITION SKY/WX   TEMP    WIND        PRES    VSBY  WAVE
                          AIR SEA DIR/SP/G                  HT/PER
                          (F)     (DEG/KT/KT) (MB)    (MI)  (FT/S)
SOUTHERN BUOY              70 68  180/ 16/ 17 1015.4F         2/ 4
WAUKEGAN HARBOR            80     220/ 16/ 21 1015.9S
HARRISON CRIB              78     200/ 17/ 20   N/A
BURNHAM HARBOR             82     230/ 11/ 15   N/A
CALUMET HARBOR             80     210/  9/ 15 1015.3R
BURNS HARBOR               79     200/ 17/ 22 1016.9S
MICHIGAN CITY              78     180/ 13/ 17   N/A
$$

ILZ025>027-034>036-040-047-049-050-058-095>099-221700-
WEST-CENTRAL ILLINOIS

CITY           SKY/WX    TMP DP  RH WIND       PRES   REMARKS
QUINCY         CLOUDY    74  69  85 E10       30.10R
GALESBURG*     CLOUDY    76  72  88 S9        29.99S
MACOMB*        CLOUDY    71  71 100 SW20G25   29.99F
JACKSONVILLE*  CLOUDY    82  71  71 W8        30.10S HX  86
PITTSFIELD*    CLOUDY    78  71  77 N6        30.11R HX  80
$$

ILZ028>032-037-038-041>044-048-051>054-059>061-221700-
CENTRAL ILLINOIS

CITY           SKY/WX    TMP DP  RH WIND       PRES   REMARKS
PONTIAC        SUNNY     82  72  69 SW10      30.04S HX  87
BLOOMINGTON    SUNNY     80  69  69 SW15      30.07S HX  83
DECATUR        SUNNY     81 N/A N/A S12       30.09R
PEORIA         PTSUNNY   84  69  60 MISG      30.03F HX  88
LACON*         PTSUNNY   81  69  67 S9        30.00F HX  84
LINCOLN*       SUNNY     85  69  59 SW8       30.04F HX  89
SPRINGFIELD    MOSUNNY   84  71  65 SW9       30.09R HX  89
TAYLORVILLE    SUNNY     79  70  73 SW10      30.09R HX  81
$$

ILZ033-039-045-046-055>057-062-063-221700-
EAST-CENTRAL ILLINOIS

CITY           SKY/WX    TMP DP  RH WIND       PRES   REMARKS
CHAMPAIGN      SUNNY     82  69  64 SW14      30.08F HX  85
RANTOUL*       MOSUNNY   82  68  63 SW13      30.08S HX  84
MATTOON        SUNNY     80  66  62 SW10      30.09S HX  82
PARIS*         SUNNY     82  71  70 S9        30.09F HX  85
$$

ILZ079-100>102-221700-
SOUTHWEST ILLINOIS

CITY           SKY/WX    TMP DP  RH WIND       PRES   REMARKS
ALTON          SUNNY     82  72  69 SW6       30.09F HX  87
CAHOKIA*       SUNNY     84  68  58 SW5       30.08F HX  87
SPARTA*        SUNNY     81  68  65 S5        30.10S HX  83
$$

ILZ064>066-069>071-074>076-080>082-084>086-088>090-092>094-221700-
SOUTH-CENTRAL ILLINOIS

CITY           SKY/WX    TMP DP  RH WIND       PRES   REMARKS
CARBONDALE     SUNNY     83  68  60 VRB3      30.10F HX  86
CAIRO*         SUNNY     85  69  58 W3        30.10S HX  89
MARION         SUNNY     84  66  54 W8        30.11S HX  86
MT. VERNON     SUNNY     82  70  65 S5        30.11S HX  86
CENTRALIA*     SUNNY     90  65  43 SW8       30.10S HX  92
SALEM*         SUNNY     85  68  57 SW8       30.10S HX  88
METROPOLIS*    SUNNY     86  64  47 W3        30.09S HX  87
$$

ILZ067-068-072-073-078-083-087-091-221700-
SOUTHEAST ILLINOIS

CITY           SKY/WX    TMP DP  RH WIND       PRES   REMARKS
FLORA*         SUNNY     82  67  61 SW8       30.11R HX  84
FAIRFIELD*     SUNNY     84  72  65 SW3       30.10S HX  89
HARRISBURG*    SUNNY     83  70  64 SW3       30.11S HX  87
ROBINSON*      SUNNY     86  71  61 W5        30.11S HX  91
CARMI*         SUNNY     86  70  58 CALM      30.09S HX  90
$$

ABBREVIATIONS USED IN REMARKS
   TC - TEMPERATURE IN CELSIUS
  WCI - WIND CHILL INDEX
   HX - HEAT INDEX
  VSB - VISIBILITY
$$




USA.gov is the U.S. government's official web portal to all federal, state and local government web resources and services.